User: anonymous   Login
Location: Unspecified
(0.0000°N, 0.0000°E)
Time: 14:08:10
(UTC+00:00)
Language:

THEOS - Orbit

View from above orbital plane
View from above orbital plane
View from above satellite
View from above satellite

Ground track
Ground track

The orbit data is extracted from the following two-line orbital elements,

1 33396U 08049A   18115.09950301  .00000142  00000-0  87481-4 0  9997
2 33396  98.7348 183.5561 0001317  97.7526  12.7583 14.20017204495748
Epoch (UTC): 25 April 2018 02:23:17
Eccentricity: 0.0001317
inclination: 98.7348°
perigee height: 824 km
apogee height: 826 km
right ascension of ascending node: 183.5561°
argument of perigee: 97.7526°
revolutions per day: 14.20017204
mean anomaly at epoch: 12.7583°
orbit number at epoch: 49574

The dashed part of the orbit path shows where the satellite is in the earth's shadow,  

DLR